User: anonymous   Login
Location: Lower Kingswood
(51.2667°N, 0.2167°W)
Time: 23:01:34
(UTC+00:00)
Language:

Cosmos 1833 Rocket - Orbit

View from above orbital plane
View from above orbital plane
View from above satellite
View from above satellite

Ground track
Ground track

The orbit data is extracted from the following two-line orbital elements,

1 17590U 87027B   24055.40041118 -.00000200  00000-0 -75870-4 0  9996
2 17590  71.0031  44.6295 0005526 203.6488 156.4383 14.16946078909942
Epoch (UTC): 24 February 2024 09:36:35
Eccentricity: 0.0005526
inclination: 71.0031°
perigee height: 832 km
apogee height: 839 km
right ascension of ascending node: 44.6295°
argument of perigee: 203.6488°
revolutions per day: 14.16946078
mean anomaly at epoch: 156.4383°
orbit number at epoch: 90994

The dashed part of the orbit path shows where the satellite is in the earth's shadow,  

DLR